sat.trackr.live / text

‹ back to catalog

TIANPING 2B

NORAD 52155 · 2022-032C

PAYLOAD ACTIVE UNKNOWN

§ Identity

Operator
Country
PRC
Launch date
2022-03-30
Launch site
JSC
Launch vehicle
Mass (kg)
RCS (m²)

External: N2YO · Heavens-Above · Gunter

§ Orbital elements

Epoch: 2026-09-20T23:20:00.777408Z

Period
95.87 min
Inclination
97.5793°
Eccentricity
0.0019552
Mean motion
15.01978743 rev/d
Perigee alt
547.2 km
Apogee alt
574.4 km
Semi-major
6,938.9 km
B*
4.0923e-5
RAAN
307.0484°
Arg perigee
202.6044°
Mean anomaly
157.4322°
Rev number
24,465

§ Raw data

TIANPING 2B1 52155U 22032C   26263.97223122  .00000478  00000+0  40923-4 0  99942 52155  97.5793 307.0484 0019552 202.6044 157.4322 15.01978743244656

JSON: /api/v1/satellites/52155 · /tle

For live sub-satellite position, see the globe view (requires WebGL).

§ Visibility from observer

Set your observer location to see the next 7 days of passes ≥ 10°. The values pass through the URL so the page stays shareable.

No JS? Fill the form by hand. The geolocation button needs JavaScript.